Regional Weather Roundup
Issued by NWS

Home | Current Version | Previous Version | Graphics & Text | Print | Product List | Glossary On
Versions: 1 2 3 4 5 6 7 8 9 10 11 12 13 14 15 16 17 18 19 20 21 22 23 24 25 26 27 28 29 30 31 32 33 34 35 36 37 38 39 40 41 42 43 44 45 46 47 48 49 50
000
ASUS45 KBOU 010810
RWRCO

WEATHER ROUNDUP FOR COLORADO
NATIONAL WEATHER SERVICE PUEBLO CO
200 AM MDT SAT AUG 01 2015

NOTE: "FAIR" INDICATES FEW OR NO CLOUDS BELOW 12000 FEET WITH NO
SIGNIFICANT WEATHER AND/OR OBSTRUCTIONS TO VISIBILITY.

COZ001>005-013-030-031-010900-
...NORTHWEST COLORADO...

CITY           SKY/WX    TMP DP  RH WIND       PRES   REMARKS
CRAIG          CLEAR     49  36  61 CALM      30.25S
HAYDEN         CLEAR     59  32  36 E12       30.28S
MEEKER         CLEAR     56  33  42 VRB5      30.29S
MOUNT WERNER   NOT AVBL
STEAMBOAT SPGS FAIR      55  38  53 CALM      30.31F
WALDEN         FAIR      48  39  71 SE7       30.41S
$$

COZ006>008-011-010900-
...WEST CENTRAL VALLEYS...

CITY           SKY/WX    TMP DP  RH WIND       PRES   REMARKS
GRAND JUNCTION PTCLDY    73  47  39 SE12      30.16S
MONTROSE       PTCLDY    65  48  54 SE6       30.28F
EAGLE          CLEAR     61  41  48 E3        30.33S
RIFLE          CLEAR     63  37  38 CALM      30.23S
DELTA          NOT AVBL
NUCLA          FAIR      66  46  48 E3        30.33S
$$

COZ017>023-064>068-010900-
...SOUTHWEST COLORADO...

CITY           SKY/WX    TMP DP  RH WIND       PRES   REMARKS
DURANGO        CLOUDY    61  54  77 N5        30.37F
CORTEZ         CLOUDY    63  61  93 CALM      30.30F
PAGOSA SPRINGS DRIZZLE   60  50  70 NW3       30.44F
TELLURIDE      CLOUDY    57  47  68 CALM      30.55S
WOLF CREEK PAS NOT AVBL
$$

COZ009-010-012-014-032>034-037-058>063-010900-
...CENTRAL COLORADO...

CITY           SKY/WX    TMP DP  RH WIND       PRES   REMARKS
ASPEN          PTCLDY    56  43  61 SW9       30.40F
BUENA VISTA    FAIR      51  47  87 NW3       30.46F
COPPER MTN     PTCLDY    54  37  54 S21       30.73F
BERTHOUD PASS  FAIR      45  34  65 W12       30.76F
COTTONWOOD PAS PTCLDY    57  43  58 W6        30.58F
GUNNISON       PTCLDY    55  45  67 NE8       30.48S
KREMMLING      CLEAR     54  41  62 CALM      30.39S
LEADVILLE      PTCLDY    44  42  93 NE6       30.58F
MONARCH PASS   PTCLDY    46  37  71 SW18      30.82F
SALIDA         NOT AVBL
NIWOT RIDGE    NOT AVBL
SUNLIGHT       PTCLDY    55  39  54 CALM      30.65F
WILKERSON PASS PTCLDY    45  43  93 W6        30.69F
$$

COZ069>075-010900-
...SAN LUIS VALLEY/SANGRE DE CRISTO MOUNTAINS...

CITY           SKY/WX    TMP DP  RH WIND       PRES   REMARKS
ALAMOSA        CLOUDY    60  50  69 N8        30.42F
LA VETA PASS   CLOUDY    54  45  71 MISG      30.60F
SAGUACHE       MOCLDY    52  48  87 N7        30.46F
$$

COZ035-036-038>040-010900-
...NORTHERN COLORADO FRONT RANGE...

CITY           SKY/WX    TMP DP  RH WIND       PRES   REMARKS
DENVER INTL AP PTCLDY    67  51  56 S12       30.22F
DMNS CITY PARK NOT AVBL
AURORA         PTCLDY    67  52  58 S13       30.24F
FRONT RANGE AP NOT AVBL
ERIE MUNI ARPT FAIR      64  53  67 SW6       30.19F
BOULDER MUN AP FAIR      66  52  59 N3        30.20F
CENTENNIAL     PTCLDY    65  51  60 S9        30.25F
BROOMFIELD     CLEAR     66  52  59 SW6       30.22F
LOVELAND       CLEAR     66  52  59 SE3       30.19F
LONGMONT       FAIR      64  54  70 CALM      30.20F
$$

COZ041-046-047-076>085-087-088-010900-
...PIKES PEAK/PALMER DIVIDE AND SOUTHERN FOOTHILLS...

CITY           SKY/WX    TMP DP  RH WIND       PRES   REMARKS
COLO. SPRINGS  PTCLDY    63  51  65 E7        30.32F
A. F. ACADEMY  PTCLDY    56  50  80 N7        30.33F
ELLICOTT       FAIR       1  32 100 VRB6      30.31F WCI -10
FALCON         FAIR      59  51  74 CALM      30.37F
FORT CARSON    PTCLDY    59  53  80 N6        30.28F
LIMON          CLEAR     55  53  93 E3        30.27F
MONUMENT HILL  CLEAR     55  50  82 SW7       30.36F
TRINIDAD       CLOUDY    68  54  60 NW3       30.29S
$$

COZ042>045-048>051-090-091-010900-
...NORTHEAST COLORADO...

CITY           SKY/WX    TMP DP  RH WIND       PRES   REMARKS
GREELEY ARPT   CLEAR     64  54  68 CALM      30.19F
AKRON          CLEAR     68  56  65 S12       30.21F
BURLINGTON     CLEAR     63  57  81 S10       30.22F
WRAY           FAIR      69  58  69 SW9       30.16F
STERLING       FAIR      64  55  72 SW3       30.16S
HOLYOKE        NOT AVBL
FORT MORGAN    FAIR      65  54  67 S6        30.19F
$$

COZ086-089-092>099-010900-
...SOUTHEAST COLORADO...

CITY           SKY/WX    TMP DP  RH WIND       PRES   REMARKS
PUEBLO         PTCLDY    68  56  65 W7        30.22F
LA JUNTA       CLEAR     68  61  78 E7        30.19S
LAMAR          MOCLDY    70  64  81 S8        30.17S
SPRINGFIELD      N/A     65  64  97 S8        30.22F
$$



USA.gov is the U.S. government's official web portal to all federal, state and local government web resources and services.